Simultaneous Nadir Overpasses (SNOs) Predictions

Prediction of SNOs between NOAA-20 and LANDSAT-8 Satellite Orbit:

Table of predicted SNOs for the next 14.0 days since TLE Epoch: 2/1/2020
Index Date (NOAA-20) Time (NOAA-20) Lat,Lon (NOAA-20) SZA (NOAA-20 ) Date (LANDSAT-8) Time (LANDSAT-8) Lat,Lon (LANDSAT-8) SZA (LANDSAT-8 ) Distance(km) Time Diff (sec)
1 02/01/2020 15:06:20 70.05, -50.26 87.22 02/01/2020 15:06:43 70.08, -50.26 87.24 2.52 23
2 02/01/2020 15:57:02 -69.96, 117.20 92.90 02/01/2020 15:56:13 -69.96, 117.21 92.89 0.60 49
3 02/04/2020 06:32:33 -70.17,-101.99 93.42 02/04/2020 06:33:44 -70.18,-101.88 93.43 4.03 71
4 02/04/2020 07:23:16 70.01, 65.57 86.40 02/04/2020 07:23:12 70.02, 65.54 86.41 1.66 4
5 02/04/2020 08:13:56 -69.81,-126.80 93.83 02/04/2020 08:12:43 -69.85,-127.06 93.76 11.16 73
6 02/06/2020 22:49:29 -70.13, 13.85 94.28 02/06/2020 22:50:13 -70.12, 13.92 94.30 2.63 44
7 02/06/2020 23:40:12 69.97,-178.60 85.55 02/06/2020 23:39:41 69.96,-178.67 85.54 3.14 31
8 02/09/2020 14:15:54 70.77, -38.72 85.58 02/09/2020 14:17:03 70.66, -37.05 85.38 62.60 69
9 02/09/2020 15:06:24 -70.09, 129.68 95.16 02/09/2020 15:06:41 -70.06, 129.71 95.20 3.34 17
10 02/09/2020 15:57:07 69.93, -62.77 84.67 02/09/2020 15:56:08 69.95, -62.80 84.69 2.09 59
11 02/12/2020 06:32:38 70.16, 78.03 84.05 02/12/2020 06:33:39 70.15, 78.09 84.03 2.21 61
12 02/12/2020 07:23:20 -70.05,-114.49 96.08 02/12/2020 07:23:09 -70.05,-114.43 96.08 2.28 11
13 02/12/2020 08:13:54 69.42, 53.76 83.25 02/12/2020 08:12:44 69.49, 52.45 83.39 51.54 70
14 02/14/2020 22:49:33 70.07,-166.07 83.06 02/14/2020 22:50:08 70.07,-166.14 83.06 2.83 35
15 02/14/2020 23:40:15 -69.96, 1.42 97.07 02/14/2020 23:39:38 -69.97, 1.35 97.05 2.99 37




NCC Satellite Simultaneous Nadir Overpasses (SNOs) Prediction Service
